Weather History for Window Rock, AZ

Change the Weather History Date:

Tuesday, June 11, 2013

  Actual Average Record
Temperature  
Mean Temperature 72 °F -  
Max Temperature 88 °F 78 °F 90 °F (1961)
Min Temperature 57 °F 45 °F 32 °F (1954)
Cooling Degree Days 8    
Growing Degree Days 22 (Base 50)    
Moisture  
Dew Point 15 °F    
Average Humidity 12    
Maximum Humidity 19    
Minimum Humidity 6    
Precipitation  
Precipitation 0.00 in - - ()
Sea Level Pressure  
Sea Level Pressure 29.82 in    
Wind  
Wind Speed 6 mph (SW)    
Max Wind Speed 21 mph    
Max Gust Speed 31 mph    
Visibility 10 miles    
Events      
Averages and records for this station are not official NWS values.
T = Trace of Precipitation, MM = Missing Value Source: NWS Daily Summary

Daily Weather History Graph

Daily Weather History Graph

Search for Another Location

Airport:

Trip Planner

Search our weather history database for the weather conditions in past years. The results will help you decide how hot, cold, wet, or windy it might be!

Date:

Astronomy

Jun. 11, 2013 Rise Set
Actual Time 5:59 AM MDT 8:32 PM MDT
Civil Twilight 5:29 AM MDT 9:02 PM MDT
Nautical Twilight 4:52 AM MDT 9:39 PM MDT
Astronomical Twilight 4:11 AM MDT 10:20 PM MDT
Moon 8:41 AM MDT (6/11) 10:42 PM MDT (6/11)
Length of Visible Light 15h 32m
Length of Day
14h 32m
Waxing Crescent, 8% of the Moon is Illuminated
Jun 11
Waxing Crescent
Jun 16
First Quarter
Jun 23
Full
Jun 29
Last Quarter
Jul 8
New

Hourly Weather History & Observations

Time (MDT) Temp. Dew Point Humidity Pressure Visibility Wind Dir Wind Speed Gust Speed Precip Events Conditions
12:53 AM 68.0 °F 16.0 °F 14% 29.76 in 10.0 mi South 4.6 mph - N/A   Clear
1:53 AM 66.9 °F 14.0 °F 13% 29.76 in 10.0 mi Calm Calm - N/A   Clear
2:53 AM 64.0 °F 12.9 °F 14% 29.78 in 10.0 mi South 3.5 mph - N/A   Clear
3:53 AM 62.1 °F 12.0 °F 14% 29.79 in 10.0 mi SW 5.8 mph - N/A   Clear
4:10 AM 64.4 °F 10.4 °F 12% 30.21 in 10.0 mi SW 6.9 mph - N/A   Partly Cloudy
4:53 AM 59.0 °F 14.0 °F 17% 29.80 in 10.0 mi Calm Calm - N/A   Clear
5:53 AM 57.9 °F 12.9 °F 17% 29.81 in 10.0 mi Calm Calm - N/A   Clear
7:53 AM 64.0 °F 21.0 °F 19% 29.83 in 10.0 mi Calm Calm - N/A   Clear
8:53 AM 73.0 °F 17.1 °F 12% 29.84 in 10.0 mi South 8.1 mph - N/A   Clear
9:53 AM 79.0 °F 15.1 °F 9% 29.83 in 10.0 mi SW 13.8 mph 23.0 mph N/A   Clear
10:53 AM 81.0 °F 14.0 °F 8% 29.83 in 10.0 mi SW 19.6 mph 27.6 mph N/A   Clear
11:53 AM 82.9 °F 12.0 °F 7% 29.83 in 10.0 mi SW 20.7 mph 29.9 mph N/A   Clear
12:53 PM 84.0 °F 12.9 °F 7% 29.81 in 10.0 mi WSW 17.3 mph 31.1 mph N/A   Clear
1:53 PM 86.0 °F 14.0 °F 7% 29.79 in 10.0 mi West 16.1 mph 27.6 mph N/A   Clear
2:53 PM 88.0 °F 12.0 °F 6% 29.78 in 10.0 mi WSW 18.4 mph 25.3 mph N/A   Clear
3:53 PM 88.0 °F 15.1 °F 7% 29.78 in 10.0 mi WSW 13.8 mph 26.5 mph N/A   Clear
4:53 PM 87.1 °F 16.0 °F 7% 29.78 in 10.0 mi WNW 5.8 mph 24.2 mph N/A   Clear
5:53 PM 86.0 °F 15.1 °F 7% 29.77 in 10.0 mi West 9.2 mph 26.5 mph N/A   Clear
6:53 PM 84.0 °F 17.1 °F 8% 29.81 in 10.0 mi WSW 13.8 mph 18.4 mph N/A   Clear
7:53 PM 82.0 °F 19.0 °F 10% 29.78 in 10.0 mi WNW 6.9 mph - N/A   Clear
8:53 PM 75.0 °F 17.1 °F 11% 29.79 in 10.0 mi Calm Calm - N/A   Clear
9:53 PM 64.9 °F 19.0 °F 17% 29.83 in 10.0 mi Calm Calm - N/A   Clear
10:53 PM 64.0 °F 18.0 °F 17% 29.85 in 10.0 mi Calm Calm - N/A   Clear
11:53 PM 63.0 °F 17.1 °F 17% 29.84 in 10.0 mi Calm Calm - N/A   Clear